Regional Weather Roundup
Issued by NWS

Home | Current Version | Previous Version | Graphics & Text | Print | Product List | Glossary On
Versions: 1 2 3 4 5 6 7 8 9 10 11 12 13 14 15 16 17 18 19 20 21 22 23 24 25 26 27 28 29 30 31 32 33 34 35 36 37 38 39 40 41 42 43 44 45 46 47 48 49 50
000
ASUS43 KOAX 020510
RWRNE

WEATHER ROUNDUP FOR NEBRASKA
NATIONAL WEATHER SERVICE OMAHA NE
1200 AM CDT SAT AUG 02 2014

NOTES: SATELLITE DATA IS BEING USED TO AUGMENT CLOUD COVER ABOVE
       12000 FEET.
       "FAIR" INDICATES FEW OR NO CLOUDS BELOW 12,000 FEET WITH NO
       SIGNIFICANT WEATHER AND/OR OBSTRUCTIONS TO VISIBILITY.

  * THESE STATIONS DO NOT REPORT WEATHER SUCH AS RAIN...SNOW OR FOG.

NEZ001>004-019>022-054>056-020600-
NEBRASKA PANHANDLE

CITY           SKY/WX    TMP DP  RH WIND       PRES   REMARKS
SCOTTSBLUFF    CLEAR     65  55  70 CALM      30.15F
ALLIANCE       PTCLDY    73  43  33 S9        30.15S
CHADRON        PTCLDY    62  48  60 NW3       30.10S
KIMBALL        CLEAR     64  51  64 SW5       30.22S
SIDNEY         CLEAR     64  50  60 SW8       30.21S
$$

NEZ057>060-069>072-079>082-020600-
SOUTHWEST NEBRASKA

CITY           SKY/WX    TMP DP  RH WIND       PRES   REMARKS
NORTH PLATTE   CLEAR     64  60  87 E7        30.14S
IMPERIAL       CLEAR     65  55  70 SE7       30.17R
LEXINGTON      CLEAR     66  60  80 S5        30.15R
MCCOOK         CLEAR     71  58  63 SE9       30.15R
OGALLALA       CLEAR     70  53  56 S9        30.15S
$$

NEZ005>010-023>029-035>040-094-020600-
NORTH CENTRAL NEBRASKA

CITY           SKY/WX    TMP DP  RH WIND       PRES   REMARKS
VALENTINE      CLOUDY    72  62  71 E9        30.11S
BROKEN BOW     CLEAR     62  57  83 SE3       30.14S
O`NEILL        CLOUDY    69  60  74 NW21      30.18R
ORD            PTCLDY    64  58  80 S5        30.12S
THEDFORD       MOCLDY    73  59  61 S8        30.13F
$$

NEZ041-046>049-061>064-073>077-083>087-020600-
SOUTH CENTRAL NEBRASKA

CITY           SKY/WX    TMP DP  RH WIND       PRES   REMARKS
GRAND ISLAND   CLEAR     66  61  84 E6        30.13S
AURORA         CLEAR     65  64  96 E5        30.13S
HASTINGS       CLEAR     63  56  78 E3        30.13S
HEBRON         CLEAR     66  60  82 CALM      30.12R
HOLDREGE       CLEAR     62  57  85 SE8       30.14S
KEARNEY *      CLEAR     64  59  82 CALM      30.14R
YORK           PTCLDY    63  63 100 CALM      30.13S
$$

NEZ011>018-030>034-042>045-020600-
NORTHEAST NEBRASKA

CITY           SKY/WX    TMP DP  RH WIND       PRES   REMARKS
NORFOLK        PTCLDY    65  61  87 SE6       30.12S
ALBION         CLEAR     62  59  90 CALM      30.13R
BLAIR          CLEAR     69  60  73 CALM      30.13R
COLUMBUS *     CLEAR     61  55  82 E3        30.13S
FREMONT        CLEAR     69  63  79 CALM      30.13R
TEKAMAH        CLEAR     64  59  83 CALM      30.12R
WAYNE          PTCLDY    61  59  92 SW3       30.12F
$$

NEZ050>053-065>068-078-088>093-020600-
SOUTHEAST NEBRASKA

CITY           SKY/WX    TMP DP  RH WIND       PRES   REMARKS
LINCOLN        CLEAR     65  59  81 N6        30.13R
OMAHA EPPLEY   CLEAR     66  63  90 NW8       30.12R
BEATRICE       MOCLDY    68  63  83 NE5       30.11R
FALLS CITY     CLEAR     69  64  84 CALM      30.09R
NEBRASKA CITY  CLEAR     69  62  78 CALM      30.11S
PLATTSMOUTH    CLEAR     68  63  83 CALM      30.12R
$$

NEZ044-045-051>053-067-020600-
OMAHA AREA

CITY           SKY/WX    TMP DP  RH WIND       PRES   REMARKS
OMAHA EPPLEY   CLEAR     66  63  90 NW8       30.12R
BLAIR          CLEAR     69  60  73 CALM      30.13R
FREMONT        CLEAR     69  63  79 CALM      30.13R
MILLARD        CLEAR     68  64  86 CALM      30.12R
OFFUTT AFB     CLEAR     63  63 100 W3        30.11R
PLATTSMOUTH    CLEAR     68  63  83 CALM      30.12R
WAHOO          FAIR      67  63  86 CALM      30.12S
$$



USA.gov is the U.S. government's official web portal to all federal, state and local government web resources and services.